AirNav   Everest Fuels
 
 994 users online  

02HI K3 Helipad
Pearl Harbor, Hawaii, USA

GOING TO PEARL HARBOR?


FAA INFORMATION EFFECTIVE 25 MARCH 2021

Location

FAA Identifier: 02HI
Lat/Long: 21-21-43.3000N 157-57-02.6000W
21-21.721667N 157-57.043333W
21.3620278,-157.9507222
(estimated)
Elevation: 9 ft. / 3 m (estimated)
Variation: 10E (2000)
From city: 8 miles W of PEARL HARBOR, HI
Time zone: UTC -10 (year round; does not observe DST)
Zip code: 96860

Heliport Operations

Heliport use: Private use. Permission required prior to landing
Activation date: 11/2002
Control tower: no
ARTCC: HONOLULU CONTROL FACILITY CENTER
FSS: HONOLULU FLIGHT SERVICE STATION
Attendance: UNATNDD
Segmented circle: no

Heliport Communications

WX ASOS at HNL (3 nm SE): PHONE 808-836-0449
WX ASOS at JRF (7 nm SW): 119.8 (808-673-7454)

Nearby radio navigation aids

VOR radial/distance  VOR name  Freq  Var
HNLr330/3.4HONOLULU VORTAC114.8011E
CKHr282/15.0KOKO HEAD VORTAC113.9011E

 
NDB name  Hdg/Dist  Freq  Var  ID
EWABE057/5.924211EHN .... -.

Heliport Services

Runway Information

Helipad H1

Dimensions: 100 x 100 ft. / 30 x 30 m
Surface: concrete
Traffic pattern: leftleft

Heliport Ownership and Management from official FAA records

Ownership: U.S. Navy
Owner: COMMANDING OFFICER
US NAVAL REGION HAWAII, 517 RUSSELL AVE
PEARL HARBOR, HI 96860-4884
Phone 808-471-1170
Manager: COMMANDING OFFICER
FISC, 1942 GAFFNEY ST SUITE 100
PEARL HARBOR, HI 96860-4549
Phone 808-473-0961

Additional Remarks

FOR CD CTC HCF CENTER AT 808-840-6262

Instrument Procedures

There are no published instrument procedures at 02HI.

Some nearby airports with instrument procedures:

PHNL - Daniel K Inouye International Airport (3 nm SE)
PHJR - Kalaeloa Airport (John Rodgers Field) (7 nm SW)
PHMK - Molokai Airport (49 nm E)
PHLU - Kalaupapa Airport (55 nm E)
PHNY - Lanai Airport (66 nm SE)
 
Loc | Ops | Rwys | IFR | FBO | Links
Com | Nav | Svcs | Stats | Notes
Area around 02HI (K3 Helipad)
 
Road maps at: MapQuest Bing Google
 
Aerial photo
No photo
 
Sectional chart

 
Airport distance calculator
Flying to K3 Helipad? Find the distance to fly.

From to 02HI

Sunrise and sunset
Times for 10-Apr-2021
 Local
(UTC-10)
 Zulu
(UTC)
Morning civil twilight05:5515:55
Sunrise06:1816:18
Sunset18:4904:49
Evening civil twilight19:1105:11

Current date and time
Zulu (UTC)  10-Apr-2021 19:17:37
Local (UTC-10)  10-Apr-2021 09:17:37
 
METAR
PHNL 
2nm S 
101853Z 03010KT 10SM FEW032 FEW040 SCT250 24/13 A3004 RMK AO2 SLP171 T02390133 $
PHJR 
7nm SW 
101853Z 04008KT 10SM CLR 24/14 A3005 RMK AO2 SLP182 T02440144
PHHI 
7nm NW 
101856Z AUTO 00000KT 10SM FEW026 FEW140 M A3007 RMK AO2 SLPNO ALSTG ESTMD $
PHNG 
11nm NE 
101857Z 05004KT 10SM CLR 23/13 A3002 RMK AO2 SLP161 T02330133
TAF
PHNL 
2nm S 
101731Z 1018/1124 32004KT P6SM FEW030 FEW070 SCT180 FM102000 08012KT P6SM FEW025 FEW050 SCT180 TEMPO 1023/1102 11005KT FM110500 03008KT P6SM FEW025 BKN050 FM110900 35004KT P6SM VCSH FEW025 BKN045
PHJR 
7nm SW 
101731Z 1018/1118 04004KT P6SM FEW030 FM102000 13008KT P6SM FEW030 SCT050 TEMPO 1100/1103 VRB05KT FM110500 VRB03KT P6SM FEW025 SCT045
PHNG 
11nm NE 
1015/1115 06010KT 9999 FEW030 QNH2997INS TEMPO 1015/1021 06010G18KT BKN040 T26/1023Z T22/1113Z
NOTAMs
Click for the latest NOTAMs
NOTAMs are issued by the DoD/FAA and will open in a separate window not controlled by AirNav.

 

 
 

Would you like to see your business listed on this page?

 If your business provides an interesting product or service to pilots, flight crews, aircraft, or users of the K3 Helipad, you should consider listing it here.  To start the listing process, click on the button below
 
Add a business
 

Other Pages about K3 Helipad

Update a link
 
Copyright © AirNav, LLC. All rights reserved. Privacy Policy  Contact